Regional Weather Roundup
Issued by NWS Grand Forks, ND

Home | Current Version | Previous Version | Text Only | Print | Product List | Glossary On
Versions: 1 2 3 4 5 6 7 8 9 10 11 12 13 14 15 16 17 18 19 20 21 22 23 24 25 26 27 28 29 30 31 32 33 34 35 36 37 38 39 40 41 42 43 44 45 46 47 48 49 50
000
ASUS43 KFGF 181631
RWRFGF
PRAIRIE TO PINES  WEATHER ROUNDUP
NATIONAL WEATHER SERVICE EASTERN NORTH DAKOTA/GRAND FORKS ND
1000 AM CST WED JAN 18 2017

 **SATELLITE DATA USED TO AUGMENT SKY COVER AT AUTOMATED STATIONS**
 *****  WEATHER ACROSS EASTERN NORTH DAKOTA  *****

CITY           SKY/WX    TMP DP  RH WIND       PRES   REMARKS
GRAND FORKS    FAIR      24  18  77 SE6       29.72R WCI  17
GRAND FRKS AFB FAIR      30  21  69 CALM      29.71S
DEVILS LAKE    FAIR      30  24  78 SW10      29.69S WCI  21
FARGO          FAIR      24  18  77 S9        29.77S WCI  14
WAHPETON ARPT  FAIR      27  19  74 CALM      29.80S
$$

 ***** WEATHER ACROSS CENTRAL AND WESTERN NORTH DAKOTA  *****

CITY           SKY/WX    TMP DP  RH WIND       PRES   REMARKS
BISMARCK       FAIR      22  15  75 CALM      29.76S
MINOT          FAIR      36  27  69 SW17      29.66R
JAMESTOWN      FAIR      31  23  72 SW7       29.73S WCI  24
MINOT AFB      FAIR      35  27  73 SW12      29.64S
GARRISON         N/A     28  22  78 SW3       29.70S
WILLISTON      FAIR      28  20  71 SW9       29.64F WCI  19
DICKINSON      FAIR      34  21  59 SW8       29.69S
HETTINGER      FAIR      30  20  66 SW3       29.76S
$$

 *****  OTHER AIRPORT OBSERVATIONS IN OUR AREA  *****

CITY           SKY/WX    TMP DP  RH WIND       PRES   REMARKS
WALHALLA       NOT AVBL
GRAFTON AIRPOR FAIR      25  21  86 S12       29.71S WCI  14
VALLEY CITY AR FAIR      23  21  93 SW9       29.77S WCI  13
CANDO          NOT AVBL
CAVALIER APRT    N/A     27  23  86 S7        29.67S WCI  19
GWINNER        FAIR      28  21  74 SW15      29.77F WCI  17
SHEYENNE NWR     N/A     28  19  67 W6        29.95S WCI  22
ROLLA            N/A    N/A N/A N/A MISG        N/A
 ***** THE ABOVE OBSERVATIONS ARE NON NWS ARE NOT QUALITY
       CONTROLLED AND MAY MIS-REPORT RAIN FOR SNOW...
$$

  *****  WEATHER ACROSS NORTHERN MINNESOTA  *****

CITY           SKY/WX    TMP DP  RH WIND       PRES   REMARKS
FLAG ISLAND    FAIR      18  12  79 SE7       29.69R WCI   8
WARROAD        FAIR      27  19  74 SW5       29.70R WCI  21
ROSEAU         FAIR      25  19  80 SW6       29.70R WCI  18
HALLOCK        FAIR      21  18  86 S10       29.68S WCI  10
THF RVR FALLS  FAIR      24  18  77 SW8       29.73S WCI  15
BAUDETTE       FAIR      23  17  78 S6        29.70R WCI  16
WASKISH        FAIR      30  21  69 SW5       29.73R
CROOKSTON      FAIR      21  18  86 S10       29.76R WCI  10
STEPHEN NDAWN    N/A     23  19  86 S10         N/A  WCI  12
GREENBUSH NDAW   N/A     25  19  80 S7          N/A  WCI  17
$$
  *****  WEATHER ACROSS CENTRAL AND WEST MINNESOTA  *****

CITY           SKY/WX    TMP DP  RH WIND       PRES   REMARKS
FOSSTON        FAIR      25  18  74 S15       29.76R WCI  12
BEMIDJI        FAIR      30  22  70 SW9       29.73S WCI  22
PARK RAPIDS    FAIR      23  18  81 SW3       29.77R
ELBOW LAKE     FAIR      25  22  85 S10       29.79F WCI  15
WADENA         FAIR      28  21  74 W5        29.78R WCI  23
DETROIT LAKES  FAIR      30  23  74 SW6       29.79S WCI  24
MOORHEAD       FAIR      23  18  80 S9        29.79S WCI  13
FERGUS FALLS   FAIR      25  19  80 S6        29.84F WCI  18
MORRIS MN      FAIR      28  23  80 S9        29.81S WCI  20
STAPLES        FAIR      28  21  74 S5        29.78F WCI  23
$$
  *****  WEATHER ELSEWHERE ACROSS MINNESOTA  *****

CITY           SKY/WX    TMP DP  RH WIND       PRES   REMARKS
DULUTH         FAIR      29  24  82 SW12      29.78S WCI  19
INTRNTL FALLS  FAIR      27  19  72 SW6       29.72R WCI  20
ELY            FAIR      28  21  74 SW8       29.75R WCI  20
CLOQUET        FAIR      28  23  80 SW8       29.79S WCI  20
WHEATON        FAIR      30  27  86 SE6       29.82S WCI  24
BRAINERD       FAIR      27  22  81 S10       29.80F WCI  17
HIBBING        FAIR      26  21  81 VRB6      29.76S WCI  19
ALEXANDRIA     FAIR      27  22  81 SW8       29.80F WCI  19
SAINT CLOUD    FAIR      26  25  96 S7        29.85F WCI  18
MINNEAPOLIS    FAIR      33  27  78 S9        29.91S
$$

  *****  WEATHER ACROSS SOUTH DAKOTA  *****

CITY           SKY/WX    TMP DP  RH WIND       PRES   REMARKS
SIOUX FALLS    FAIR      29  27  92 S5        29.89F WCI  24
BROOKINGS      FAIR      26  24  92 S7        29.86R WCI  18
WATERTOWN      FAIR      22  19  89 S5        29.84S WCI  16
HURON          FAIR      22  19  89 SE8       29.85S WCI  12
SISSETON         N/A     38  24  57 CALM      29.78F
ABERDEEN       FAIR      20  13  74 S9        29.82S WCI   9
MITCHELL       FAIR      26  23  88 S7        29.87S WCI  18
PIERRE         FAIR      19  13  77 S8        29.81F WCI   9
MOBRIDGE       FAIR      20  13  74 E7        29.75F WCI  11
RAPID CITY     FAIR      28  19  69 CALM      29.76F
$$

  *****  SOME WEATHER IN NEARBY STATES *****

CITY           SKY/WX    TMP DP  RH WIND       PRES   REMARKS
GLASGOW MT     FAIR      31  23  72 SE14      29.56F WCI  21
GREAT FALLS MT FAIR      40  25  55 SW24      29.58R
CHEYENNE WY    FAIR      37  11  34 W7        29.91F
SCOTTSBLUFF NE FAIR      31  17  56 NW5       29.89F
OMAHA NE       FAIR      33  29  85 S13       30.04S WCI  24
DES MOINES IA  FAIR      33  32  96 S9        30.09F
DAVENPORT IA   CLOUDY    33  29  85 SW15      30.15F WCI  23
CHICAGO IL     CLOUDY    34  33  96 SW8       30.11F FOG
EAU CLAIRE WI  FAIR      30  26  85 S10       29.93S WCI  21
LA CROSSE WI   FAIR      34  29  82 S21       29.99F WCI  22
$$

  *****  SOME NATIONAL WEATHER *****

CITY           SKY/WX    TMP DP  RH WIND       PRES   REMARKS
LA GUARDIA NY  CLOUDY    42  37  82 NE10      29.93F
RALEIGH NC     FAIR      67  50  54 VRB6G21   30.00R
ATLANTA GA     PTSUNNY   64  57  78 NW13      30.19R
NEW ORLEANS LA PTSUNNY   71  69  93 SE8       30.16F
OKLAHOMA CITY  CLOUDY    44  39  82 SE5       30.15S
ALBUQUERQUE NM LGT RAIN  37  35  92 CALM      30.13R
SALT LAKE CITY FAIR      22  18  85 CALM      30.18R FOG
LOS ANGELES CA PTSUNNY   51  44  77 NE6       30.19S
BOISE ID       CLOUDY    18  14  84 S3        30.01F FOG
SEATTLE WA     RAIN      45  43  93 SE6       29.33S
$$

*** WEATHER ACROSS MANITOBA...SASKATCHEWAN AND ONTARIO ***
                ***ONTARIO***

CITY           SKY/WX    TMP DP  RH WIND       PRES   REMARKS
GERALDTON      FRZ RAIN  32  27  80 W6        29.64F
THUNDER BAY    MOSUNNY   25  25 100 SW5       29.74R WCI  19
SIOUX LOOKOUT  PTSUNNY   25  19  80 SW7       29.69R WCI  17
TORONTO        CLOUDY    37  34  87 NW8       29.96S
BIG TROUT LK   CLOUDY    30  28  93 W10       29.55R WCI  21
PICKLE LAKE    PTSUNNY   25  21  86 W8        29.61R WCI  16
DRYDEN         SUNNY     25  19  80 SW6       29.69R WCI  18
KENORA         MOSUNNY   21  16  79 S7        29.68R WCI  13
$$
                *** MANITOBA***

CITY           SKY/WX    TMP DP  RH WIND       PRES   REMARKS
BRANDON        PTSUNNY   21  18  86 W8        29.61F WCI  12
DAUPHIN        CLEAR     36  28  75 SW9       29.55R
ISLAND LAKE    CLOUDY    25  21  86 VRB2      29.61R
PILOT MOUND      N/A     23  18  80 SW7         N/A  WCI  15
THE PAS        MOCLDY    27  23  86 SE8       29.47F WCI  18
THOMPSON       CLOUDY    34  30  86 S5        29.55R
WINNIPEG       MOSUNNY   21  18  86 S7        29.64R WCI  13
LYNN LAKE      FOG       21  21 100 SE5       29.45S VSB 1/8 WCI  15
CHURCHILL      LGT SNOW   9   7  92 N13       29.58R DRFTSNOWWCI  -7
GILLAM         CLOUDY    30  27  86 NE8       29.56R WCI  23
$$
                ***SASKATCHEWAN***

CITY           SKY/WX    TMP DP  RH WIND       PRES   REMARKS
ESTEVAN        MOCLDY    32  25  74 S12G18    29.60S WCI  23
KINDERSLEY     MOCLDY    36  30  80 S14       29.30F
LLOYDMINSTER   CLOUDY    34  28  80 S13       29.18F WCI  25
PRINCE ALBERT  CLOUDY    21  19  93 E9        29.33F WCI  11
REGINA         MOCLDY    27  23  86 SE16      29.49F WCI  14
YORKTON        CLEAR     32  27  80 S12G17    29.48F WCI  23
N. BATTLEFORD  CLEAR     41  28  60 S9        29.26F
LA RONGE       PTCLDY    23  21  93 NE7       29.29F WCI  15
SASKATOON      MOCLDY    37  30  75 S16G23    29.33F
SWIFT CURRENT  PTCLDY    39  30  70 SW25G31   29.37S
$$
NOTE: THESE ARE AUTOMATED STATIONS WITH LIMITED QUALITY CONTROL
      "FAIR" INDICATES FEW OR NO CLOUDS BELOW 12,000 FEET WITH NO
      SIGNIFICANT WEATHER AND/OR OBSTRUCTIONS TO VISIBILITY.
      SKY/WX - SKY CONDITION AND SIGNIFICANT WEATHER.
      TMP - AIR TEMPERATURE.    DP   - DEWPOINT TEMPERATURE.
      RH  - RELATIVE HUMIDITY.  PRES - PRESSURE.
      HX  - HEAT INDEX.         WCI  - WIND CHILL INDEX.
$



USA.gov is the U.S. government's official web portal to all federal, state and local government web resources and services.